FW2015 Weather Reports


Display with metric or nautical units.
time (UTC)temp
F
wind
direction
speed
MPH
gust
MPH
rain 1hr
in
rain 24hr
in
rain mn
in
humidity
%
barometer
mb
20260506181529 57 144 10.0 23.0 0.00 0.00 0.00 92 1008.0
20260506180028 57 197 12.0 23.0 0.00 0.00 0.00 91 1008.1
20260506174526 58 229 11.0 26.0 0.00 0.00 0.00 91 1008.6
20260506173024 58 184 10.0 21.0 0.00 0.00 0.00 90 1008.5
20260506171529 59 241 15.0 23.0 0.00 0.00 0.00 88 1008.6
20260506170020 58 245 11.0 23.0 0.00 0.00 0.00 90 1008.9
20260506164519 58 175 13.0 23.0 0.00 0.00 0.00 89 1009.3
20260506163018 58 212 13.0 22.0 0.00 0.00 0.00 90 1009.6
20260506161516 57 235 11.0 20.0 0.00 0.00 0.00 90 1009.8
20260506160016 57 202 7.0 19.0 0.00 0.00 0.00 90 1010.0
20260506154512 57 252 11.0 20.0 0.00 0.00 0.00 90 1010.1
20260506153012 57 162 10.0 22.0 0.00 0.00 0.00 89 1010.0
20260506151511 58 158 7.0 20.0 0.00 0.00 0.00 89 1010.2
20260506150010 58 231 8.0 20.0 0.00 0.00 0.00 88 1010.3
20260506144509 59 212 10.0 20.0 0.00 0.00 0.00 87 1010.5
20260506143020 58 194 12.0 22.0 0.00 0.00 0.00 88 1010.6
20260506141510 58 214 9.0 21.0 0.00 0.00 0.00 89 1010.5
20260506140007 58 219 10.0 22.0 0.00 0.00 0.00 89 1010.4
20260506134510 59 238 13.0 22.0 0.00 0.00 0.00 88 1010.5
20260506133008 59 216 12.0 27.0 0.00 0.00 0.00 87 1010.8
20260506131508 59 214 10.0 23.0 0.00 0.00 0.00 87 1010.8
20260506130011 59 202 12.0 25.0 0.00 0.00 0.00 88 1010.7
20260506124505 59 226 13.0 24.0 0.00 0.00 0.00 88 1010.8
20260506123003 59 243 12.0 25.0 0.00 0.00 0.00 88 1010.7
20260506121600 58 224 11.0 23.0 0.00 0.00 0.00 90 1010.7
20260506120059 58 219 11.0 22.0 0.00 0.00 0.00 90 1010.7
20260506114556 57 195 9.0 23.0 0.00 0.00 0.00 91 1010.8
20260506113055 57 240 9.0 22.0 0.00 0.00 0.00 92 1010.7
20260506111555 57 216 12.0 21.0 0.00 0.00 0.00 92 1010.8
20260506110054 56 217 11.0 24.0 0.00 0.00 0.00 93 1010.7
20260506104553 56 228 10.0 19.0 0.00 0.00 0.00 93 1010.5
20260506103055 56 240 12.0 22.0 0.00 0.00 0.00 94 1010.5
20260506101549 55 218 10.0 21.0 0.00 0.00 0.00 95 1010.5
20260506100047 55 248 8.0 17.0 0.00 0.00 0.00 95 1010.3
20260506094545 55 174 7.0 18.0 0.00 0.00 0.00 95 1010.3
20260506093042 55 219 9.0 16.0 0.00 0.00 0.00 95 1010.4
20260506091540 55 239 8.0 19.0 0.00 0.00 0.00 94 1010.6
20260506090046 55 213 10.0 18.0 0.00 0.00 0.00 94 1010.8
20260506084539 55 169 6.0 17.0 0.00 0.00 0.00 94 1010.9
20260506083032 55 188 8.0 18.0 0.00 0.00 0.00 94 1010.8
20260506081537 56 181 11.0 20.0 0.00 0.00 0.00 94 1010.8
20260506073025 57 302 11.0 22.0 0.00 0.00 0.00 92 1011.1
20260506071523 57 205 11.0 23.0 0.00 0.00 0.00 92 1011.1
20260506061536 57 179 10.0 27.0 0.00 0.00 0.00 90 1010.9
20260506044601 56 210 11.0 18.0 0.00 0.00 0.00 91 1011.5
20260506043105 56 224 11.0 18.0 0.00 0.00 0.00 91 1011.6
20260506041556 56 215 10.0 19.0 0.00 0.00 0.00 90 1011.5
20260506034558 55 274 10.0 21.0 0.00 0.00 0.00 90 1011.6
20260506033052 56 229 10.0 22.0 0.00 0.00 0.00 89 1011.8
20260506031553 56 205 10.0 20.0 0.00 0.00 0.00 89 1011.7
20260506030055 56 172 8.0 18.0 0.00 0.00 0.00 89 1011.7
20260506024558 57 243 12.0 23.0 0.00 0.00 0.00 88 1011.7
20260506023051 57 233 12.0 21.0 0.00 0.00 0.00 87 1011.9
20260506021601 58 203 9.0 23.0 0.00 0.00 0.00 86 1011.8
20260506020048 57 165 9.0 17.0 0.00 0.00 0.00 87 1011.7
20260506014548 57 255 11.0 21.0 0.00 0.00 0.00 86 1011.5
20260506013056 57 219 11.0 20.0 0.00 0.00 0.00 87 1011.5
20260506011601 57 241 11.0 20.0 0.00 0.00 0.00 87 1011.3
20260506010046 57 240 7.0 18.0 0.00 0.00 0.00 87 1011.3
20260506004546 58 214 11.0 24.0 0.00 0.00 0.00 86 1011.2
20260506003147 58 210 13.0 25.0 0.00 0.00 0.00 86 1011.1
20260506001550 57 239 12.0 22.0 0.00 0.00 0.00 86 1011.0
20260506000046 57 218 10.0 21.0 0.00 0.00 0.00 85 1010.9
20260505234544 58 148 12.0 21.0 0.00 0.00 0.00 84 1010.7
20260505233044 59 203 10.0 25.0 0.00 0.00 0.00 83 1010.8
20260505231601 60 237 11.0 24.0 0.00 0.00 0.00 81 1010.5
20260505230043 60 245 11.0 24.0 0.00 0.00 0.00 80 1010.5
20260505224542 60 253 12.0 25.0 0.00 0.00 0.00 79 1010.3
20260505223042 61 244 12.0 27.0 0.00 0.00 0.00 77 1010.3
20260505221542 62 229 14.0 27.0 0.00 0.00 0.00 76 1010.1
20260505220041 62 212 14.0 29.0 0.00 0.00 0.00 77 1010.1
20260505214600 61 188 13.0 28.0 0.00 0.00 0.00 78 1010.0
20260505213039 61 255 15.0 30.0 0.00 0.00 0.00 79 1009.9
20260505211536 61 245 13.0 27.0 0.00 0.00 0.00 79 1009.8
20260505210037 61 195 15.0 31.0 0.00 0.00 0.00 78 1009.8
20260505204535 61 205 14.0 31.0 0.00 0.00 0.00 78 1009.6
20260505203033 60 204 13.0 26.0 0.00 0.00 0.00 80 1009.6
20260505201529 60 221 11.0 23.0 0.00 0.00 0.00 81 1009.7
20260505200035 59 226 13.0 26.0 0.00 0.00 0.00 81 1009.8
20260505194525 60 158 12.0 22.0 0.00 0.00 0.00 80 1010.0
20260505193023 60 219 11.0 24.0 0.00 0.00 0.00 81 1010.2
20260505191522 59 190 10.0 23.0 0.00 0.00 0.00 82 1010.4
20260505190026 59 173 11.0 22.0 0.00 0.00 0.00 82 1010.4
20260505184521 59 169 13.0 22.0 0.00 0.00 0.00 82 1010.4
20260505183027 59 163 11.0 22.0 0.00 0.00 0.00 82 1010.4